FLOCK 2K-29 (42871 NORAD) Tracking and Keplerian Element Data

This shows tracking and keplerian element data for the satellite.

Feedback or suggestion? Click here.




ElementValue
Catalog42871
NameFLOCK 2K-29
Epoch Orbit3291
Epoch Day46.21950633
Epoch Year2018
RAAN309.0033
Inclination96.9926
Eccentricity0.00108
Argument of Perigee181.1384
Mean Anonmoly178.9838
Mean Motion15.3569852
Decay Rate8.792E-05
L11 42871U 17042AY 18046.21950633 .00008792 00000-0 25492-3 0 9995
L22 42871 96.9926 309.0033 0010800 181.1384 178.9838 15.35698520 32911

Live tracking and technical data element details for FLOCK 2K-29 (NORAD 42871). FLOCK 2K-29 can be tracked NOW for your location showing map with azimuth and elevation plus other details from your city location.

Track the satellite on the map from your city or location and see movement details for azimuth, elevation, latitude, longitude, range, height, and movement on the map or in text.







IsCatalogInMostPopularTable: catalog: 42871, numindb: 89
Update: records affected: 1



GetName: 42871 FLOCK 2K-29

Hit Count: updated at: Sat, 21 Jul 2018 08:01:05 GMT